Location: Vienna
(48.2082°N, 16.3738°E)
Time: 22:28:20
(UTC+02:00)

ISS - Pass Details

Date: 19 July 2018
Orbit: 402 x 408 km, 51.6° (Epoch: 20 July)

Event Time Altitude Azimuth Distance (km) Brightness Sun altitude
Rises 03:06:48 0° 290° (WNW) 2,331 -0.1 -15.4°
Reaches altitude 10° 03:08:54 10° 294° (WNW) 1,470 -1.1 -15.2°
Maximum altitude 03:12:10 66° 17° (NNE) 449 -3.4 -14.9°
Drops below altitude 10° 03:15:27 10° 101° (E) 1,469 -0.7 -14.6°
Sets 03:17:33 0° 104° (ESE) 2,328 0.3 -14.4°
